[[{"header":{"parameterUnit":"m.s-1","parameterCategory":1,"la1":30.2991,"la2":30.254,"lo1":-89.0895,"lo2":-89.0444,"dy":0.0017,"dx":0.0017,"nx":28,"ny":28,"refTime":"2024-12-23T09:00:00:Z","depth":0,"parameterNumber":2,"parameterNumberName":"U-component_of_WINDS"},"data":[0,0,0,0,0,0,0,0,0,0,0,0,0,0,0,0,0,0,0,0,0,0,0,0,0,0,0,0,0,0,0,0,0,0,0,0,0,0,0,0,0,0,0,0,0,0,0,0,0,0,0,0,0,0,0,0,0,0,-2.6929,-2.693,0,-2.697,-2.697,-2.697,-2.6887,-2.6884,-2.6881,-2.6879,-2.6919,-2.6922,-2.6926,0,0,0,0,0,0,0,0,0,0,0,0,0,-2.6778,-2.6781,-2.6929,-2.693,-2.693,-2.6969,-2.697,-2.6971,-2.6887,-2.6884,-2.688,-2.6877,-2.6917,-2.6922,-2.6926,0,0,0,0,0,0,0,0,0,0,0,0,0,-2.6834,-2.6782,-2.6929,-2.6893,-2.689,-2.6969,-2.697,-2.6971,-2.6888,-2.6884,-2.688,-2.6876,-2.6916,-2.6921,-2.6927,-2.7042,0,0,-2.6943,-2.6945,0,0,0,0,0,0,0,0,-2.6831,-2.6839,-2.6898,-2.6896,-2.6893,-2.6919,-2.6931,-2.6994,-2.6889,-2.6889,-2.6878,-2.6874,-2.6922,-2.6927,-2.6943,-2.7044,-2.7045,-2.6944,-2.6947,-2.6949,-2.6951,0,0,0,0,0,0,0,-2.6827,-2.6837,-2.6945,-2.6899,-2.6896,-2.6875,-2.6878,-2.6943,-2.6928,-2.6888,-2.6882,-2.6888,-2.692,-2.6938,-2.6943,-2.7046,-2.6943,-2.6948,-2.6952,-2.6954,-2.7242,-2.7246,0,0,0,0,0,0,-2.6828,-2.6834,-2.6944,-2.6946,-2.6851,-2.6881,-2.6884,-2.6915,-2.6927,-2.6925,-2.6892,-2.6884,-2.6931,-2.6937,-2.6945,-2.7079,-2.6949,-2.6954,-2.6957,-2.7238,-2.7243,-2.7248,0,0,0,0,0,0,-2.6825,-2.6838,-2.6942,-2.6889,-2.69,-2.6888,-2.6922,-2.6918,-2.6936,-2.6929,-2.6926,-2.6914,-2.6928,-2.6937,-2.7018,-2.708,-2.6957,-2.6962,-2.7232,-2.7239,-2.7245,-2.7351,0,0,0,0,0,0,-2.6821,-2.6838,-2.6882,-2.689,-2.6904,-2.7016,-2.6926,-2.6921,-2.6946,-2.6936,-2.6949,-2.6947,-2.6925,-2.701,-2.7023,-2.7085,-2.6966,-2.7227,-2.7235,-2.7243,-2.7342,-2.736,-2.7376,0,0,0,0,0,-2.6816,-2.691,-2.6885,-2.6898,-2.6958,-2.702,-2.7027,-2.7001,-2.6951,-2.6995,-2.699,-2.6947,-2.7071,-2.702,-2.7033,-2.7097,-2.7223,-2.7233,-2.7243,-2.7334,-2.7357,-2.7376,0,0,0,0,0,0,-2.6909,-2.691,-2.6882,-2.6982,-2.7002,-2.7005,-2.706,-2.7025,-2.7059,-2.7049,-2.7014,-2.7017,-2.7105,-2.7109,-2.7052,-2.7209,-2.7138,-2.7152,-2.7203,-2.7225,-2.7241,-2.7238,-2.697,0,0,0,0,0,-2.6941,-2.6991,-2.6989,-2.7078,-2.7089,-2.7073,-2.7099,-2.7077,-2.7095,-2.7103,-2.7104,-2.7123,-2.7166,-2.7196,-2.7235,-2.7342,-2.7343,-2.7393,-2.741,-2.7424,-2.7436,-2.7492,-2.7514,-2.728,-2.728,-2.728,0,0,-2.7008,-2.7015,-2.7049,-2.7097,-2.7109,-2.7161,-2.708,-2.7139,-2.7177,-2.7111,-2.7188,-2.719,-2.7209,-2.7304,-2.7345,-2.731,-2.7501,-2.7437,-2.7448,-2.7452,-2.7504,-2.7526,-2.7546,-2.7287,-2.7286,-2.7285,0,0,-2.7156,-2.7167,-2.7241,-2.7255,-2.7275,-2.7264,-2.7282,-2.7291,-2.729,-2.7367,-2.7318,-2.7362,-2.7438,-2.7453,-2.7471,-2.7625,-2.7585,-2.7638,-2.7728,-2.7783,-2.7801,-2.7817,-2.7872,-2.7892,-2.765,-2.765,-2.7651,0,-2.7237,-2.7314,-2.7284,-2.7346,-2.7368,-2.7311,-2.7386,-2.7401,-2.7432,-2.7449,-2.7408,-2.7501,-2.751,-2.7607,-2.7645,-2.7661,-2.768,-2.7637,-2.7801,-2.7817,-2.7832,-2.7883,-2.7904,-2.7657,-2.7656,-2.7655,-2.7655,0,-2.7411,-2.7465,-2.7523,-2.7555,-2.7584,-2.7652,-2.7632,-2.7664,-2.764,-2.7633,-2.7711,-2.7719,-2.7759,-2.7781,-2.7757,-2.7874,-2.7851,-2.7807,-2.7735,-2.7861,-2.7908,-2.7928,-2.7666,-2.7664,-2.7662,-2.766,0,0,-2.7619,-2.7634,-2.7656,-2.7669,-2.7687,-2.7728,-2.7793,-2.7832,-2.7861,-2.7884,-2.7937,-2.8002,-2.7961,-2.7981,-2.7959,-2.8007,-2.8128,-2.7956,-2.7956,-2.7988,-2.8256,-2.829,-2.8313,-2.8102,-2.8105,-2.8108,-2.8255,0,-2.7766,-2.7879,-2.7853,-2.7964,-2.8013,-2.796,-2.8016,-2.8033,-2.8028,-2.8068,-2.8062,-2.8108,-2.8051,-2.8063,-2.8108,-2.8104,-2.8181,-2.8093,-2.815,-2.8153,-2.8147,-2.8338,-2.8373,-2.8511,-2.8273,-2.8276,-2.8278,0,-2.7952,-2.7983,-2.8099,-2.8108,-2.8127,-2.8179,-2.8212,-2.8252,-2.8269,-2.8262,-2.8285,-2.8253,-2.8316,-2.8244,-2.8331,-2.8271,-2.8293,-2.8295,-2.8299,-2.8303,-2.8223,-2.8347,-2.8554,-2.8575,-2.8308,-2.8305,-2.8303,0,-2.8092,-2.8162,-2.8241,-2.8254,-2.8267,-2.8304,-2.8311,-2.8324,-2.8349,-2.8378,-2.8394,-2.843,-2.845,-2.8479,-2.8457,-2.8406,-2.8547,-2.8473,-2.8542,-2.8543,-2.8574,-2.8572,-2.8788,-2.8589,-2.8589,-2.8589,-2.8588,0,-2.8258,-2.8331,-2.8303,-2.8352,-2.8431,-2.8401,-2.8481,-2.8481,-2.8493,-2.854,-2.8496,-2.854,-2.8509,-2.8551,-2.8534,-2.8608,-2.8618,-2.8613,-2.8608,-2.8617,-2.8618,-2.8631,-2.862,-2.8594,-2.8593,-2.8592,-2.8591,0,-2.8428,-2.8412,-2.8494,-2.8499,-2.8502,-2.856,-2.8564,-2.8609,-2.86,-2.866,-2.8672,-2.8659,-2.8705,-2.8687,-2.8736,-2.8725,-2.882,-2.8802,-2.8814,-2.8809,-2.8879,-2.8873,-2.911,-2.9139,-2.8923,-2.8925,-2.8927,0,-2.8534,-2.8589,-2.86,-2.8629,-2.8639,-2.8685,-2.871,-2.8682,-2.8711,-2.8734,-2.8775,-2.8818,-2.8851,-2.8929,-2.8923,-2.896,-2.8943,-2.9023,-2.8948,-2.8955,-2.8943,-2.894,-2.8945,-2.9038,-2.9041,-2.9043,-2.9045,0,-2.8726,-2.8715,-2.8754,-2.879,-2.8821,-2.8848,-2.8871,-2.8897,-2.887,-2.8904,-2.8951,-2.8977,-2.9027,-2.907,-2.9104,-2.9109,-2.9073,-2.9068,-2.9086,-2.9096,-2.9101,-2.9099,-2.8855,-2.9063,-2.9061,-2.906,-2.9059,-2.9058,-2.8867,-2.8913,-2.8928,-2.8972,-2.8986,-2.9008,-2.905,-2.9047,-2.9086,-2.9125,-2.9106,-2.9162,-2.9176,-2.9217,-2.9228,-2.927,-2.9239,-2.9265,-2.9271,-2.9278,-2.9287,-2.9095,-2.9276,-2.9276,-2.9275,-2.9275,-2.9274,0,-2.9055,-2.9062,-2.9103,-2.9137,-2.9171,-2.9134,-2.9157,-2.9188,-2.9237,-2.9255,-2.9288,-2.9342,-2.9384,-2.9381,-2.9419,-2.9453,-2.9437,-2.9464,-2.9461,-2.9463,-2.9313,-2.9294,-2.9476,-2.9476,-2.9476,-2.9476,-2.9476,-2.9476,-2.9157,-2.9233,-2.9224,-2.9306,-2.9312,-2.9366,-2.9382,-2.9402,-2.9416,-2.9479,-2.9513,-2.9511,-2.952,-2.9558,-2.9594,-2.9592,-2.9608,-2.9641,-2.9633,-2.9494,-2.9474,-2.9454,-2.9436,-2.9645,-2.9646,-2.9779,-2.978,-2.9781]},{"header":{"parameterUnit":"m.s-1","parameterCategory":1,"la1":30.2991,"la2":30.254,"lo1":-89.0895,"lo2":-89.0444,"dy":0.0017,"dx":0.0017,"nx":28,"ny":28,"refTime":"2024-12-23T09:00:00:Z","depth":0,"parameterNumber":3,"parameterNumberName":"V-component_of_WINDS"},"data":[0,0,0,0,0,0,0,0,0,0,0,0,0,0,0,0,0,0,0,0,0,0,0,0,0,0,0,0,0,0,0,0,0,0,0,0,0,0,0,0,0,0,0,0,0,0,0,0,0,0,0,0,0,0,0,0,0,0,-2.782,-2.7821,0,-2.7872,-2.7872,-2.7873,-2.784,-2.7839,-2.7837,-2.7836,-2.7886,-2.7888,-2.7891,0,0,0,0,0,0,0,0,0,0,0,0,0,-2.7691,-2.7693,-2.782,-2.7821,-2.7822,-2.7872,-2.7872,-2.7873,-2.7841,-2.7839,-2.7837,-2.7835,-2.7885,-2.7888,-2.7891,0,0,0,0,0,0,0,0,0,0,0,0,0,-2.7745,-2.7694,-2.782,-2.7812,-2.7811,-2.7871,-2.7872,-2.7873,-2.7841,-2.7839,-2.7836,-2.7834,-2.7884,-2.7888,-2.7892,-2.7962,0,0,-2.7904,-2.7906,0,0,0,0,0,0,0,0,-2.7742,-2.775,-2.7812,-2.7812,-2.7812,-2.7847,-2.7845,-2.7903,-2.7842,-2.783,-2.7836,-2.7833,-2.7874,-2.7879,-2.7894,-2.7964,-2.7967,-2.7904,-2.7907,-2.7909,-2.791,0,0,0,0,0,0,0,-2.7738,-2.7747,-2.784,-2.7813,-2.7813,-2.7804,-2.7809,-2.7856,-2.7864,-2.7831,-2.7828,-2.7835,-2.7874,-2.789,-2.7895,-2.7967,-2.7904,-2.7908,-2.791,-2.7912,-2.8097,-2.8099,0,0,0,0,0,0,-2.7736,-2.7744,-2.7839,-2.7842,-2.7771,-2.7808,-2.7814,-2.7838,-2.7863,-2.7865,-2.7837,-2.7833,-2.7884,-2.789,-2.7896,-2.7979,-2.7909,-2.7912,-2.7915,-2.8094,-2.8097,-2.81,0,0,0,0,0,0,-2.7733,-2.7744,-2.7837,-2.7793,-2.7804,-2.7813,-2.784,-2.784,-2.7856,-2.7868,-2.7869,-2.7852,-2.7882,-2.789,-2.7946,-2.7981,-2.7914,-2.7918,-2.8091,-2.8095,-2.8099,-2.8147,0,0,0,0,0,0,-2.7729,-2.7744,-2.7771,-2.7794,-2.7806,-2.7887,-2.7843,-2.7843,-2.7864,-2.786,-2.7882,-2.7884,-2.7881,-2.794,-2.795,-2.7985,-2.7921,-2.8088,-2.8093,-2.8098,-2.8142,-2.8152,-2.816,0,0,0,0,0,-2.7725,-2.7783,-2.7773,-2.7785,-2.7841,-2.7889,-2.7896,-2.7892,-2.7867,-2.7894,-2.7902,-2.7883,-2.7975,-2.7946,-2.7957,-2.7994,-2.8086,-2.8092,-2.8097,-2.8138,-2.815,-2.816,0,0,0,0,0,0,-2.7763,-2.7785,-2.7775,-2.7842,-2.7864,-2.7883,-2.7918,-2.7905,-2.7934,-2.7929,-2.7922,-2.7928,-2.7985,-2.7995,-2.7962,-2.8062,-2.8027,-2.8035,-2.8054,-2.8065,-2.8074,-2.807,-2.7925,0,0,0,0,0,-2.778,-2.7818,-2.7834,-2.7892,-2.7903,-2.7909,-2.7929,-2.7925,-2.7947,-2.7956,-2.7967,-2.7989,-2.8022,-2.8044,-2.8076,-2.8144,-2.8147,-2.8174,-2.8183,-2.819,-2.8197,-2.8232,-2.8244,-2.8118,-2.8118,-2.8118,0,0,-2.7814,-2.783,-2.7855,-2.79,-2.7916,-2.7954,-2.7917,-2.7959,-2.7987,-2.7962,-2.8015,-2.8024,-2.8047,-2.8109,-2.8136,-2.8119,-2.8233,-2.8197,-2.8203,-2.8206,-2.8239,-2.8251,-2.8261,-2.8122,-2.8121,-2.8121,0,0,-2.7895,-2.7912,-2.7961,-2.7978,-2.8004,-2.8007,-2.8019,-2.8041,-2.8046,-2.8099,-2.8081,-2.8113,-2.8172,-2.8189,-2.8205,-2.8292,-2.8276,-2.8302,-2.8348,-2.8383,-2.8392,-2.8401,-2.8431,-2.8442,-2.8309,-2.8309,-2.8309,0,-2.7933,-2.7991,-2.7987,-2.8031,-2.8051,-2.8031,-2.8079,-2.8096,-2.8131,-2.8144,-2.8124,-2.8196,-2.8211,-2.8275,-2.8296,-2.8311,-2.8323,-2.8299,-2.8392,-2.84,-2.8408,-2.8436,-2.8448,-2.8312,-2.8312,-2.8312,-2.8311,0,-2.8036,-2.8077,-2.8113,-2.8148,-2.8171,-2.8217,-2.8219,-2.8244,-2.8237,-2.8242,-2.8296,-2.8312,-2.8346,-2.8361,-2.8355,-2.8425,-2.8413,-2.8393,-2.8356,-2.8423,-2.845,-2.8461,-2.8317,-2.8315,-2.8315,-2.8314,0,0,-2.8143,-2.8175,-2.8188,-2.8203,-2.823,-2.826,-2.8304,-2.8339,-2.8359,-2.8383,-2.8419,-2.8469,-2.845,-2.8469,-2.8464,-2.8494,-2.856,-2.847,-2.847,-2.8485,-2.8637,-2.8651,-2.8664,-2.855,-2.8552,-2.8554,-2.8634,0,-2.8224,-2.8303,-2.8301,-2.8373,-2.8409,-2.8391,-2.8429,-2.8449,-2.8455,-2.8486,-2.8491,-2.8526,-2.8499,-2.851,-2.8539,-2.8546,-2.859,-2.854,-2.8582,-2.8584,-2.8576,-2.8678,-2.8693,-2.8768,-2.8645,-2.8646,-2.8648,0,-2.833,-2.8359,-2.8435,-2.8456,-2.8471,-2.8506,-2.8536,-2.8566,-2.8588,-2.859,-2.861,-2.8601,-2.8644,-2.8607,-2.8666,-2.8632,-2.8649,-2.8655,-2.8658,-2.866,-2.8619,-2.8682,-2.8792,-2.8803,-2.8664,-2.8663,-2.8662,0,-2.8398,-2.8456,-2.8509,-2.8522,-2.8548,-2.8573,-2.8584,-2.8604,-2.8624,-2.8651,-2.8663,-2.8695,-2.8711,-2.8735,-2.8733,-2.8707,-2.8792,-2.8756,-2.8794,-2.8794,-2.8812,-2.881,-2.8925,-2.8825,-2.8825,-2.8824,-2.8824,0,-2.8489,-2.8536,-2.854,-2.8572,-2.8624,-2.862,-2.8671,-2.868,-2.8698,-2.873,-2.8716,-2.8747,-2.8743,-2.8774,-2.8773,-2.8821,-2.8829,-2.8831,-2.883,-2.8831,-2.8831,-2.8841,-2.8836,-2.8827,-2.8827,-2.8826,-2.8826,0,-2.8574,-2.8578,-2.8634,-2.8654,-2.866,-2.8697,-2.8714,-2.8744,-2.8748,-2.879,-2.8799,-2.8806,-2.8841,-2.8842,-2.8882,-2.8882,-2.894,-2.8934,-2.8933,-2.8931,-2.8969,-2.8965,-2.9093,-2.9109,-2.9,-2.9001,-2.9002,0,-2.8631,-2.8666,-2.869,-2.8712,-2.8725,-2.876,-2.8781,-2.8778,-2.88,-2.8827,-2.8854,-2.8888,-2.8915,-2.8972,-2.898,-2.901,-2.9003,-2.9046,-2.9008,-2.9008,-2.9003,-2.9,-2.9003,-2.9054,-2.9055,-2.9056,-2.9057,0,-2.8731,-2.8731,-2.8762,-2.8794,-2.882,-2.8845,-2.8868,-2.8886,-2.8886,-2.8911,-2.8947,-2.8968,-2.901,-2.9043,-2.9073,-2.9083,-2.9069,-2.9069,-2.9079,-2.9081,-2.9078,-2.9079,-2.8952,-2.9066,-2.9065,-2.9064,-2.9064,-2.9063,-2.8802,-2.8833,-2.8854,-2.8889,-2.8907,-2.8928,-2.8957,-2.8966,-2.8996,-2.903,-2.9027,-2.9067,-2.9086,-2.9125,-2.9138,-2.9168,-2.9153,-2.9168,-2.9172,-2.9175,-2.9178,-2.9075,-2.9173,-2.9173,-2.9173,-2.9173,-2.9173,0,-2.89,-2.8914,-2.8946,-2.8979,-2.9006,-2.8992,-2.9017,-2.904,-2.9075,-2.9096,-2.9123,-2.9164,-2.9196,-2.9206,-2.9237,-2.926,-2.9254,-2.9268,-2.9265,-2.9268,-2.9191,-2.9178,-2.9271,-2.9271,-2.9271,-2.9271,-2.9271,-2.9271,-2.8955,-2.9005,-2.9008,-2.9067,-2.9079,-2.9119,-2.9134,-2.9153,-2.9169,-2.9216,-2.9243,-2.925,-2.9266,-2.9298,-2.9326,-2.9329,-2.934,-2.9356,-2.9355,-2.9283,-2.9273,-2.9264,-2.9252,-2.9359,-2.9359,-2.9429,-2.943,-2.943]}]]